Wetbulb
59.58 59.59 59.48 59.21 58.62 58.48 58.38 58.03 57.77 58.04 58.80 59.42 59.52 59.30 59.00 58.20 56.93 58.22 55.72 58.82 57.78 63.97 62.12 56.05 57.06 57.23 56.16 53.76 54.24 53.08 46.39 47.11 49.66 55.07 55.33 58.27 55.11 57.90 58.90 55.51 55.38 56.86 53.81 55.07 54.87
59.36 59.11 59.07 58.80 58.18 57.96 57.76 57.31 56.99 57.43 58.06 58.79 59.03 58.98 58.42 57.55 56.27 55.09 61.60 63.09 62.80 63.39 54.03 54.21 54.82 55.97 51.43 52.40 52.34 49.50 46.36 49.18 57.37 58.35 57.49 56.99 53.98 54.19 52.77 51.60 51.98 52.39 54.41 54.41 54.00
58.78 58.67 58.48 58.40 58.09 57.81 57.34 56.87 56.64 57.04 57.65 58.34 58.74 58.90 57.83 56.60 55.12 54.32 63.46 63.47 62.64 61.40 55.43 55.56 56.29 55.19 51.18 51.80 51.31 50.62 48.38 53.06 57.10 58.03 56.08 52.83 52.53 54.61 51.11 48.17 52.24 49.88 50.80 52.32 51.84
57.94 58.00 57.99 58.14 57.99 57.48 56.78 56.24 56.54 56.86 57.21 57.82 58.74 58.83 57.24 56.77 48.68 53.10 64.72 64.71 63.76 58.48 55.88 55.27 54.40 52.00 49.64 49.02 51.81 49.95 53.69 55.35 54.66 57.28 54.83 52.84 53.74 52.85 49.64 52.45 54.60 52.86 52.91 51.67 50.81
57.05 57.17 57.53 57.88 57.75 57.18 56.43 56.10 56.02 56.32 56.41 57.32 58.74 58.64 55.77 52.03 54.34 57.76 65.70 64.27 60.07 58.28 55.35 54.29 52.29 52.07 49.76 50.84 51.74 51.66 53.74 56.00 56.23 56.18 53.89 55.55 52.80 51.84 51.14 54.37 54.96 53.81 52.77 50.96 50.86
56.60 56.64 56.88 57.02 57.05 56.83 56.34 55.98 55.55 55.31 55.67 57.13 58.59 58.03 54.89 48.63 59.09 59.10 59.95 57.90 58.25 55.35 54.94 54.15 52.98 53.83 52.19 53.74 52.08 54.72 54.72 54.80 54.79 53.73 54.35 52.87 51.20 51.56 51.43 54.46 53.19 52.46 50.45 50.68 51.61
56.54 56.25 56.31 56.39 56.30 56.09 56.07 55.55 55.18 55.03 55.57 57.09 58.54 57.50 52.88 50.87 56.40 57.30 58.30 57.80 56.74 55.13 53.69 56.12 57.94 55.40 54.60 52.70 55.54 54.12 50.59 52.95 53.29 52.14 51.60 52.97 46.72 48.44 53.22 54.02 51.75 50.92 50.84 51.25 51.10
56.06 55.89 55.50 55.36 55.30 55.13 55.11 54.65 54.65 54.91 55.66 57.01 57.92 54.50 50.01 58.03 56.13 55.88 56.37 57.03 58.18 56.52 55.59 59.06 58.77 55.76 55.20 55.21 53.58 50.08 49.99 45.67 51.46 53.38 53.19 51.13 44.30 50.63 53.21 52.35 50.05 49.96 50.57 51.41 49.06
55.40 55.36 55.03 54.93 54.75 54.56 54.36 54.48 54.49 55.27 56.41 57.42 53.74 52.40 49.78 59.97 56.11 55.88 54.38 55.36 56.26 56.06 58.00 60.91 57.51 53.87 54.20 49.24 45.47 47.32 42.02 45.40 47.53 53.28 51.81 49.19 45.08 50.24 52.69 51.90 49.99 50.32 50.24 50.15 48.26
55.52 55.28 54.95 54.75 54.58 54.16 53.66 53.89 54.74 55.99 57.99 58.88 57.39 50.03 54.56 53.80 55.61 55.01 53.97 57.34 54.56 55.26 55.61 54.52 52.00 49.11 48.65 45.98 39.60 43.27 43.99 44.32 45.22 49.79 49.52 47.96 45.56 49.05 51.62 51.27 50.44 50.02 50.12 49.14 46.60
55.86 55.54 54.79 54.64 54.73 54.22 52.54 52.58 53.33 52.77 52.49 51.32 52.18 51.80 52.82 56.01 56.40 54.00 55.50 55.25 53.35 51.87 48.01 51.32 46.37 44.29 47.09 48.96 49.27 48.47 46.60 44.72 46.16 51.66 49.38 48.17 47.10 48.46 49.90 50.48 49.39 50.06 49.93 48.72 47.28
55.42 55.31 54.83 54.52 54.42 54.12 51.49 52.47 53.65 53.88 48.72 56.59 56.84 55.47 57.23 55.24 51.43 52.87 54.75 50.21 50.53 45.65 48.56 47.07 44.40 49.77 51.83 51.14 49.81 48.59 46.32 45.09 47.72 52.01 49.08 47.33 46.56 48.73 50.23 50.78 51.14 50.68 49.83 48.92 46.21
54.36 54.83 54.64 54.14 54.00 53.31 53.86 53.62 59.11 59.20 48.88 53.74 54.66 55.45 55.65 54.74 50.46 50.68 51.47 50.68 49.29 47.15 46.83 44.68 48.06 52.50 51.35 49.13 48.41 47.32 46.59 46.03 45.81 49.08 47.78 45.95 43.40 46.46 49.72 51.41 51.74 52.08 52.09 50.63 45.87
54.12 54.40 54.00 53.80 51.91 54.71 53.69 58.39 59.58 58.51 45.81 49.23 51.03 53.55 54.81 54.15 49.63 53.36 52.96 50.94 48.70 46.74 47.59 46.40 50.25 49.96 48.84 48.77 48.33 44.30 49.70 49.65 48.13 44.94 39.31 45.64 38.33 44.40 47.58 49.21 50.65 51.32 51.24 50.45 47.05
53.75 54.32 54.02 54.61 50.45 52.78 55.93 59.27 59.38 56.93 36.52 50.43 51.26 56.54 54.46 50.81 50.68 50.79 53.52 50.68 46.86 47.45 47.09 45.78 47.94 48.21 48.05 49.01 50.55 47.95 51.47 49.23 48.04 44.13 42.90 43.23 39.10 43.13 46.55 45.36 48.10 50.04 49.81 50.59 48.10
53.81 54.34 54.20 54.05 51.57 53.91 59.49 59.11 57.12 44.06 35.39 47.26 51.63 50.17 49.97 50.24 50.38 50.66 50.14 51.37 50.95 47.70 47.21 46.88 49.75 48.76 48.57 51.07 51.04 52.09 49.35 47.49 46.21 43.20 36.39 43.35 40.09 42.44 43.06 46.34 48.69 49.85 49.22 49.16 47.96
53.76 54.00 52.94 54.70 52.63 58.37 59.11 55.12 42.56 35.97 48.83 44.95 46.75 49.98 48.33 47.71 48.60 48.32 47.41 45.12 42.01 40.42 41.54 45.24 46.66 48.52 50.30 46.55 49.12 47.01 42.91 36.53 34.99 34.93 35.62 44.57 39.98 39.65 44.92 47.39 49.16 49.30 48.13 49.25 47.02
53.66 50.56 53.75 54.05 54.10 56.46 56.04 48.97 37.84 44.89 45.51 48.28 48.02 47.93 45.90 47.78 47.21 47.34 45.43 42.60 45.69 44.55 41.61 39.95 39.63 46.07 48.96 46.90 44.24 44.31 43.65 37.33 32.06 32.23 36.15 43.30 37.03 39.42 45.26 47.69 49.26 49.59 49.14 48.17 46.49
50.79 50.98 51.79 56.30 56.93 57.14 50.75 39.83 40.08 44.57 46.91 46.71 47.26 44.23 43.94 47.17 47.01 45.64 44.70 43.76 45.37 46.18 41.43 41.13 42.64 48.29 49.07 49.20 47.40 44.46 41.30 45.26 40.08 40.13 35.51 37.67 40.32 43.08 45.61 45.76 47.66 47.44 47.55 45.85 44.94
50.22 51.95 51.34 58.79 58.07 54.64 46.85 42.12 45.66 48.86 48.31 47.80 43.47 45.72 43.39 44.24 44.43 44.44 44.60 46.93 46.08 47.43 46.77 44.55 40.02 47.28 47.67 48.25 47.44 44.80 46.14 38.99 38.94 32.76 31.20 36.82 37.40 37.12 41.71 43.49 45.92 45.30 45.27 45.38 44.48
49.66 47.04 55.28 58.43 55.90 47.67 38.73 41.12 47.28 50.05 49.40 46.51 45.16 45.09 46.03 44.71 45.40 45.09 44.39 46.99 48.29 47.48 47.95 46.09 42.35 42.88 46.52 43.84 42.65 42.68 40.94 42.53 41.39 39.14 32.84 30.64 34.91 43.95 43.55 45.28 44.44 45.13 45.78 44.70 43.00
50.41 43.32 56.30 56.97 40.56 41.28 38.08 44.95 48.28 48.48 50.29 48.26 47.71 47.05 45.86 46.10 45.25 45.07 43.96 46.23 48.89 48.96 45.33 46.48 43.72 38.63 42.50 47.58 47.40 44.03 42.72 42.56 36.05 35.48 37.88 36.06 34.10 46.21 45.47 45.82 46.76 46.66 46.05 44.91 44.12
48.30 48.37 55.11 54.32 35.14 35.70 42.49 45.55 47.15 47.98 47.41 47.08 46.50 47.53 47.16 44.61 41.58 45.64 45.87 48.69 49.18 47.07 43.65 44.17 41.21 36.70 39.21 43.25 45.65 43.55 45.39 44.49 42.89 40.75 36.67 32.11 34.51 46.84 47.03 46.71 47.45 45.75 45.29 43.88 42.24
48.34 41.65 46.42 48.30 47.07 43.93 42.67 42.20 44.41 49.49 48.54 48.77 47.41 47.94 45.57 43.60 44.99 43.12 45.72 49.17 49.11 48.11 46.69 47.19 43.12 40.24 35.37 40.20 43.41 41.65 43.96 43.88 41.60 36.18 36.55 36.86 39.31 43.30 44.97 44.81 45.06 44.33 43.63 42.30 40.87
48.72 44.96 44.51 35.69 37.35 41.89 44.81 46.02 43.51 44.52 47.06 47.77 45.59 46.00 44.61 40.52 42.64 42.75 45.50 46.70 48.65 48.17 47.18 45.78 39.84 42.86 43.95 44.89 44.60 43.63 42.82 42.39 41.04 41.24 36.91 38.68 38.88 42.39 44.28 44.03 44.31 44.29 43.46 41.77 40.74
46.39 46.19 46.96 44.35 42.27 41.72 43.58 43.40 44.32 45.82 45.34 43.87 43.04 45.30 44.43 41.32 43.21 41.54 45.30 45.00 43.77 46.46 45.22 45.79 39.78 42.37 40.92 44.83 43.84 42.45 42.84 42.29 42.26 41.83 41.16 40.11 38.48 44.15 45.70 45.57 44.68 44.13 43.30 41.78 40.99
51.61 50.97 48.12 44.51 42.55 41.37 42.00 44.90 45.82 47.09 47.88 47.53 45.68 43.53 42.62 45.96 47.38 46.90 47.14 46.99 46.08 43.98 42.95 42.65 40.63 38.68 36.26 42.74 41.23 35.97 40.84 40.84 41.42 42.10 40.71 37.51 39.66 43.22 42.86 44.20 43.84 43.26 43.78 43.17 42.09
MSLP
1019.15 1018.86 1018.59 1018.23 1017.97 1017.60 1017.10 1016.62 1016.12 1015.59 1015.07 1014.60 1014.05 1013.47 1012.91 1012.21 1010.60 1009.71 1008.95 1007.38 1007.20 1007.22 1007.30 1007.04 1006.75 1006.69 1006.85 1007.00 1006.64 1006.90 1008.23 1007.92 1007.58 1007.87 1008.76 1009.25 1009.77 1010.49 1011.26 1012.26 1013.76 1014.50 1015.72 1016.77 1018.79
1019.15 1018.91 1018.59 1018.22 1017.90 1017.53 1017.01 1016.51 1016.03 1015.52 1014.95 1014.49 1013.84 1013.39 1012.91 1012.40 1011.33 1009.08 1006.99 1006.83 1006.79 1006.98 1006.91 1007.06 1006.96 1006.74 1006.93 1006.46 1006.29 1006.61 1007.36 1007.22 1006.43 1007.42 1008.59 1009.41 1010.16 1010.91 1012.10 1013.28 1015.29 1015.96 1016.55 1017.54 1018.66
1019.03 1018.86 1018.59 1018.23 1017.91 1017.38 1016.88 1016.41 1015.97 1015.41 1014.88 1014.31 1013.88 1013.31 1012.59 1012.28 1011.15 1007.64 1006.16 1006.59 1006.54 1006.67 1006.66 1006.83 1006.66 1006.71 1006.53 1006.12 1005.77 1006.08 1006.64 1006.65 1007.17 1007.54 1008.30 1009.66 1010.46 1011.03 1012.29 1013.73 1014.46 1016.06 1017.16 1017.95 1018.77
1018.98 1018.85 1018.59 1018.24 1017.80 1017.33 1016.82 1016.41 1015.86 1015.23 1014.72 1014.28 1013.84 1013.15 1012.14 1011.81 1009.85 1006.64 1006.26 1006.32 1006.28 1006.39 1006.48 1006.55 1006.43 1006.51 1006.31 1006.08 1005.44 1005.59 1005.63 1006.10 1007.11 1007.51 1008.71 1009.69 1010.45 1011.22 1012.03 1012.21 1013.87 1015.44 1016.66 1017.64 1018.53
1018.92 1018.69 1018.45 1018.03 1017.58 1017.16 1016.67 1016.18 1015.61 1015.06 1014.63 1014.27 1013.89 1013.44 1012.13 1011.26 1008.41 1006.07 1006.13 1006.13 1006.38 1006.33 1006.40 1006.53 1006.57 1006.40 1006.08 1005.53 1005.42 1005.32 1005.84 1006.29 1006.89 1007.45 1008.41 1009.42 1010.30 1011.29 1012.64 1013.12 1014.31 1015.60 1016.80 1017.69 1018.34
1018.71 1018.47 1018.21 1017.84 1017.46 1016.90 1016.36 1015.92 1015.30 1014.78 1014.29 1014.10 1013.85 1013.53 1012.78 1010.67 1006.51 1005.72 1005.83 1005.93 1005.90 1005.91 1005.88 1006.10 1005.90 1005.40 1005.53 1005.58 1005.60 1005.80 1005.99 1006.59 1007.17 1007.94 1008.60 1009.39 1010.46 1010.94 1013.22 1013.47 1014.70 1015.69 1016.78 1017.55 1017.98
1018.59 1018.28 1017.90 1017.55 1017.16 1016.62 1016.07 1015.49 1014.89 1014.38 1013.93 1013.86 1013.71 1013.35 1012.05 1008.77 1006.24 1005.97 1006.44 1005.55 1005.34 1005.24 1005.35 1005.32 1005.16 1005.33 1005.12 1005.24 1005.32 1005.82 1006.58 1007.16 1007.67 1008.33 1008.89 1009.38 1010.89 1011.39 1012.49 1013.26 1014.47 1015.69 1016.59 1017.36 1017.95
1018.43 1018.11 1017.67 1017.30 1016.87 1016.33 1015.72 1015.02 1014.23 1013.78 1013.42 1013.45 1013.40 1012.85 1010.61 1006.91 1006.18 1006.08 1005.39 1005.32 1005.09 1004.91 1005.09 1004.99 1004.84 1005.18 1005.30 1005.49 1005.80 1006.42 1007.10 1007.90 1007.89 1008.39 1008.94 1009.72 1010.21 1010.99 1011.78 1012.77 1014.22 1015.27 1016.21 1016.95 1017.92
1018.24 1017.91 1017.49 1017.07 1016.67 1016.11 1015.34 1014.39 1013.28 1012.79 1012.58 1012.89 1012.97 1012.16 1009.20 1006.03 1005.97 1005.41 1005.18 1005.33 1005.04 1004.97 1005.03 1005.18 1005.31 1005.59 1005.80 1006.45 1006.98 1007.13 1007.47 1007.79 1008.05 1007.79 1008.89 1009.78 1010.25 1009.78 1011.05 1012.33 1013.64 1014.70 1015.82 1016.82 1017.97
1018.08 1017.66 1017.25 1016.76 1016.22 1015.71 1014.97 1013.45 1011.63 1012.33 1011.49 1011.93 1011.49 1011.26 1007.92 1005.97 1005.23 1004.96 1004.81 1004.93 1005.20 1005.17 1005.62 1005.92 1006.17 1006.32 1006.77 1007.32 1007.67 1007.39 1007.53 1007.40 1007.61 1008.03 1008.93 1009.87 1010.56 1010.78 1010.75 1011.55 1012.70 1014.09 1015.28 1016.44 1017.74
1017.88 1017.47 1017.05 1016.52 1015.89 1015.61 1014.88 1013.25 1012.14 1012.20 1011.52 1010.26 1009.20 1008.01 1006.35 1005.59 1004.71 1004.72 1004.73 1005.01 1005.26 1005.71 1006.24 1006.36 1006.93 1006.96 1006.98 1006.81 1006.68 1006.73 1006.88 1006.94 1006.81 1006.78 1008.11 1009.04 1009.75 1010.36 1010.54 1011.32 1012.07 1013.25 1014.34 1015.78 1017.18
1017.67 1017.30 1016.97 1016.42 1015.73 1015.25 1015.32 1014.40 1012.86 1012.64 1011.47 1009.26 1008.21 1007.53 1006.31 1005.74 1005.33 1005.07 1004.93 1005.65 1005.91 1006.35 1006.43 1006.83 1006.78 1006.27 1005.95 1005.99 1006.31 1006.27 1006.24 1006.31 1006.47 1006.77 1007.97 1008.64 1009.17 1009.12 1009.69 1009.44 1010.05 1011.55 1013.22 1014.92 1016.74
1017.56 1017.18 1016.78 1016.26 1015.48 1014.66 1014.26 1013.01 1012.22 1012.27 1011.75 1008.34 1006.75 1006.16 1005.59 1005.40 1005.28 1005.00 1005.24 1005.37 1005.91 1006.46 1006.52 1006.65 1005.95 1005.43 1005.59 1005.47 1005.55 1005.42 1005.55 1005.91 1006.61 1007.27 1007.56 1008.01 1008.64 1008.39 1008.16 1008.52 1009.65 1010.61 1011.89 1013.60 1015.36
1017.40 1017.06 1016.63 1016.08 1015.76 1014.73 1013.54 1012.64 1012.37 1012.43 1011.47 1007.31 1005.47 1004.68 1004.83 1005.09 1004.98 1004.37 1004.56 1005.22 1005.62 1006.05 1006.29 1005.96 1005.20 1004.99 1004.80 1004.84 1005.10 1005.32 1005.12 1005.69 1006.68 1007.46 1007.97 1007.97 1007.80 1007.72 1007.27 1006.93 1008.52 1010.01 1011.22 1012.86 1014.98
1017.19 1016.91 1016.57 1016.64 1016.33 1014.90 1013.72 1012.85 1012.60 1012.49 1010.28 1005.36 1004.45 1003.67 1004.00 1004.77 1004.19 1003.85 1004.00 1004.74 1005.33 1005.77 1005.82 1005.64 1005.11 1004.65 1004.38 1004.54 1004.88 1005.55 1005.46 1006.13 1006.85 1007.63 1008.02 1007.97 1008.22 1006.83 1006.72 1007.24 1007.98 1009.26 1010.72 1012.10 1014.14
1017.02 1016.74 1016.51 1015.80 1016.14 1014.45 1013.38 1013.07 1013.07 1012.43 1008.66 1005.37 1004.53 1004.28 1004.45 1004.66 1004.50 1004.39 1004.19 1004.31 1005.05 1005.53 1005.55 1005.59 1004.76 1004.57 1004.46 1004.58 1004.88 1005.41 1005.99 1006.66 1007.36 1008.29 1008.75 1008.12 1008.51 1007.31 1006.83 1006.47 1007.73 1009.12 1010.76 1012.59 1014.85
1016.89 1016.67 1016.73 1015.83 1014.91 1013.96 1013.54 1013.62 1013.09 1010.71 1006.69 1005.85 1004.99 1004.62 1004.91 1005.06 1005.03 1004.96 1004.92 1005.43 1006.13 1006.28 1006.37 1005.58 1004.81 1004.44 1004.30 1004.80 1005.19 1005.76 1006.90 1008.03 1008.83 1009.17 1009.02 1008.37 1008.28 1008.04 1007.78 1007.52 1007.95 1009.60 1011.61 1013.36 1015.24
1016.78 1016.80 1015.89 1015.33 1014.62 1014.27 1014.21 1013.84 1012.17 1008.75 1007.17 1006.02 1005.41 1005.24 1005.15 1005.09 1005.28 1005.24 1005.61 1006.28 1006.27 1006.62 1006.80 1006.46 1005.58 1004.55 1004.39 1004.81 1005.46 1006.20 1007.25 1008.60 1009.24 1009.75 1009.44 1008.63 1008.87 1009.52 1009.23 1008.98 1009.47 1010.64 1012.43 1014.30 1016.16
1016.97 1016.43 1015.82 1014.40 1014.37 1014.46 1014.79 1013.53 1010.70 1008.61 1007.37 1006.60 1006.11 1005.71 1005.46 1005.06 1005.07 1005.68 1006.15 1006.83 1007.06 1007.49 1007.48 1006.67 1005.83 1004.77 1004.58 1005.06 1005.63 1006.32 1007.28 1007.82 1009.05 1009.58 1009.76 1009.57 1009.40 1010.12 1009.87 1010.40 1011.03 1012.33 1013.79 1015.59 1017.26
1016.91 1015.73 1014.78 1013.77 1014.02 1014.54 1014.62 1012.55 1009.99 1008.26 1007.78 1007.23 1006.86 1006.08 1006.03 1005.52 1005.86 1006.20 1006.85 1008.22 1007.93 1007.65 1007.28 1007.36 1006.80 1006.04 1005.81 1005.51 1005.76 1006.34 1007.24 1008.02 1009.18 1010.22 1010.61 1010.15 1009.93 1010.21 1010.62 1011.09 1012.11 1013.55 1015.18 1016.81 1018.39
1016.87 1015.41 1014.41 1013.83 1014.22 1014.66 1014.41 1012.11 1009.82 1008.39 1008.07 1007.93 1007.68 1007.04 1006.95 1007.03 1007.03 1007.07 1008.72 1008.97 1008.87 1008.37 1007.80 1008.20 1008.04 1007.53 1006.78 1006.67 1006.56 1006.91 1007.45 1008.21 1009.25 1010.30 1010.86 1010.79 1010.51 1009.12 1009.68 1010.69 1012.32 1014.04 1015.73 1017.28 1018.94
1016.17 1015.27 1014.18 1014.10 1014.78 1014.27 1013.70 1011.70 1009.98 1008.84 1008.31 1008.34 1008.14 1008.01 1008.05 1008.08 1008.32 1008.67 1009.69 1009.77 1009.43 1009.24 1009.54 1009.67 1009.27 1008.88 1007.91 1007.02 1006.54 1006.78 1007.33 1008.21 1009.68 1010.57 1010.80 1010.86 1010.11 1009.11 1009.33 1010.87 1012.47 1014.44 1016.14 1017.81 1019.29
1015.72 1014.96 1014.39 1014.45 1014.73 1014.17 1012.97 1011.65 1010.48 1009.25 1008.72 1008.56 1008.53 1008.63 1008.77 1008.86 1009.32 1009.47 1009.96 1010.29 1010.12 1010.29 1010.80 1010.68 1010.46 1010.11 1009.03 1007.86 1007.84 1008.23 1008.54 1008.80 1009.56 1010.30 1010.91 1011.46 1010.87 1010.09 1010.37 1012.08 1013.66 1015.13 1016.97 1018.63 1020.20
1015.80 1014.89 1015.01 1014.89 1014.13 1013.76 1012.87 1011.68 1010.65 1009.53 1009.42 1009.10 1009.06 1009.11 1009.59 1009.68 1009.66 1010.05 1010.36 1010.53 1010.60 1010.96 1011.17 1011.28 1011.42 1011.42 1011.20 1010.58 1010.14 1009.72 1009.37 1009.39 1009.98 1011.02 1011.36 1011.73 1011.27 1012.06 1012.49 1013.43 1014.90 1016.41 1017.84 1019.50 1020.98
1015.32 1013.80 1013.43 1014.13 1013.97 1013.53 1012.80 1011.35 1010.58 1010.09 1010.05 1009.82 1009.65 1010.03 1010.36 1010.59 1010.47 1010.57 1010.72 1010.96 1011.14 1011.42 1011.66 1011.99 1012.41 1012.21 1011.86 1011.28 1010.65 1010.24 1010.16 1010.13 1010.59 1011.20 1011.97 1012.97 1013.07 1013.21 1013.66 1014.41 1015.72 1017.01 1018.50 1019.91 1021.16
1014.90 1013.47 1012.62 1012.82 1012.80 1013.07 1012.37 1011.32 1010.58 1010.34 1010.34 1010.40 1010.60 1010.64 1010.85 1011.25 1011.28 1011.37 1011.41 1011.87 1012.20 1012.14 1012.31 1012.43 1012.98 1013.04 1012.96 1012.11 1011.78 1011.32 1011.07 1011.08 1011.43 1011.98 1012.14 1013.09 1014.29 1014.79 1015.02 1015.53 1016.51 1017.15 1017.80 1018.67 1019.98
1013.62 1012.72 1012.74 1012.52 1012.69 1012.66 1012.04 1011.33 1010.66 1010.52 1010.42 1010.46 1010.93 1011.17 1011.42 1011.95 1011.89 1011.84 1011.95 1012.29 1012.56 1012.85 1013.14 1013.28 1013.73 1014.14 1014.07 1013.38 1012.92 1012.64 1012.34 1012.29 1012.68 1012.79 1012.86 1013.84 1015.39 1015.80 1016.61 1017.09 1017.67 1018.50 1019.48 1020.41 1021.24
Wind_Speed
10 11 12 12 13 14 15 16 17 18 18 19 20 20 20 20 24 2 6 7 4 2 2 6 6 9 8 8 8 3 2 10 4 18 9 7 11 11 8 9 8 1 10 17 20
10 11 12 13 13 14 15 17 17 18 19 19 20 20 19 18 6 8 7 5 4 3 3 5 9 8 5 7 6 4 4 5 2 9 12 11 12 8 6 12 10 15 19 22 19
11 11 11 12 13 15 16 17 17 18 19 20 19 21 22 13 5 8 8 8 6 4 2 3 8 8 5 7 8 8 5 4 7 10 11 9 8 6 13 6 10 22 19 19 16
10 11 12 12 14 15 15 16 18 19 19 19 19 21 26 2 3 2 8 10 8 3 3 6 7 8 5 7 7 4 6 8 4 9 8 11 10 7 4 7 23 22 20 17 14
10 10 12 13 14 15 16 17 18 19 19 18 17 17 10 5 10 6 9 10 5 3 4 6 9 7 7 8 4 1 6 8 8 9 7 11 7 7 9 20 21 21 18 15 12
11 11 12 13 14 16 17 18 19 19 19 17 15 17 2 7 8 8 11 8 9 5 9 7 11 11 8 2 4 2 7 8 4 6 5 8 5 8 7 19 20 20 14 12 11
11 11 12 14 15 16 18 20 20 20 20 16 13 5 4 18 6 14 11 6 5 4 5 5 6 7 4 3 1 2 4 5 4 3 3 4 2 9 17 20 20 16 14 12 9
10 12 12 14 15 17 19 22 22 22 20 14 5 3 9 7 9 13 13 8 8 7 5 7 6 4 2 1 2 2 2 4 7 10 6 8 9 9 20 21 18 16 13 12 13
11 12 13 14 15 17 20 24 27 23 18 8 2 4 10 9 5 11 7 8 7 5 3 5 5 2 5 2 4 3 5 8 1 12 7 7 7 11 20 19 18 17 13 12 13
12 12 13 14 16 17 21 25 21 9 5 7 6 4 8 8 8 9 9 8 3 4 2 2 2 0 2 3 6 8 7 8 7 10 6 7 2 9 18 20 19 15 13 14 17
11 12 14 15 17 15 12 9 6 4 3 8 7 7 11 5 6 3 2 2 5 2 6 6 2 6 12 13 10 12 11 7 3 9 11 13 9 14 15 14 15 17 15 16 17
11 12 14 15 18 17 4 3 4 4 8 11 19 20 19 6 3 7 5 4 6 6 5 4 7 13 13 9 10 13 10 5 2 9 6 9 10 10 19 23 22 22 17 18 15
11 12 14 15 17 9 4 4 6 8 3 9 10 11 12 6 7 13 5 8 7 7 10 9 12 11 10 8 7 4 2 3 5 5 4 4 6 8 8 18 18 18 19 20 25
11 12 12 16 4 6 3 7 6 3 2 8 8 13 11 7 9 11 7 9 5 11 8 9 13 8 3 2 4 4 3 1 7 2 5 7 9 7 8 11 23 18 19 20 21
11 11 11 4 6 5 4 8 8 4 1 2 5 0 7 10 3 4 10 5 10 8 4 11 7 7 3 2 3 1 6 4 3 5 7 7 5 9 7 3 17 17 14 20 22
11 11 11 1 3 7 7 8 3 4 5 4 4 5 2 7 10 7 4 5 2 5 7 8 3 0 2 3 2 1 1 5 3 1 3 15 5 13 8 8 14 11 10 20 20
10 9 5 6 3 8 7 4 4 3 3 3 3 5 8 6 9 4 5 2 4 1 6 8 8 5 5 3 1 1 5 4 4 1 8 8 3 4 8 8 6 10 14 17 22
9 7 6 5 7 7 5 2 3 7 1 1 1 4 4 8 9 8 5 5 8 7 6 5 9 8 4 7 8 5 8 6 4 2 7 7 3 3 5 12 16 17 20 20 19
6 3 4 4 7 2 3 1 5 5 9 5 8 5 6 5 4 8 7 4 4 7 2 4 1 10 8 3 5 4 3 8 3 3 3 4 2 3 7 9 13 15 18 17 18
3 3 3 6 3 3 2 5 4 5 6 8 3 5 5 6 3 3 4 11 8 8 3 6 4 4 2 6 6 3 2 6 4 1 5 6 6 6 6 8 10 12 16 16 18
2 1 3 4 4 4 3 6 5 7 7 6 6 6 7 7 7 4 8 5 9 9 8 7 4 6 3 2 5 3 2 2 3 3 4 3 7 7 12 13 14 12 16 18 18
4 2 3 3 4 3 3 4 5 4 3 3 4 6 6 7 7 5 5 5 10 7 4 2 0 3 5 8 3 3 1 4 5 7 4 4 9 2 8 13 16 16 17 17 17
3 4 2 4 4 3 6 10 8 5 3 1 2 4 6 5 6 6 5 5 8 6 3 5 4 4 10 8 9 6 10 6 4 3 4 2 8 2 12 15 15 19 18 17 19
3 3 1 0 2 1 3 8 4 4 6 6 3 6 5 3 2 4 3 2 4 3 0 3 2 3 4 6 4 7 10 9 3 1 4 4 6 3 14 17 17 18 18 17 16
3 4 8 4 4 5 3 6 6 5 4 5 3 3 2 2 3 3 3 6 3 2 0 4 1 5 7 7 7 9 7 6 4 7 5 8 7 8 13 17 17 18 19 18 16
3 3 1 0 7 7 4 3 6 6 6 4 2 5 6 3 4 3 4 7 5 7 7 5 3 5 6 7 9 6 12 11 8 11 6 9 8 7 13 15 16 18 19 19 17
4 3 4 4 5 4 4 4 3 0 1 6 3 4 4 5 5 4 5 1 2 2 3 4 3 4 2 6 9 6 6 7 4 9 2 6 6 7 9 10 9 9 11 11 13
Wind_Direction
342 342 340 339 335 331 330 331 330 325 327 323 325 327 330 331 316 211 254 226 175 216 133 279 290 240 243 252 244 186 311 278 297 123 195 115 94 61 91 106 50 170 150 142 139
336 335 337 334 329 328 327 327 325 322 323 323 326 327 328 333 301 269 228 193 154 260 351 338 309 317 251 236 256 136 172 291 97 119 141 115 110 122 104 89 72 78 98 127 141
332 330 328 329 324 325 324 322 320 319 320 322 326 326 322 323 313 247 144 207 197 205 191 271 268 277 266 233 251 263 189 88 97 115 117 122 121 137 132 149 163 141 139 145 156
325 323 322 320 321 319 320 317 315 317 317 321 325 327 317 218 284 158 188 219 213 225 20 300 293 313 301 259 273 159 50 81 107 120 121 149 151 164 164 198 142 141 147 152 164
319 318 316 318 317 315 314 313 313 312 311 316 324 328 344 328 255 200 207 239 233 168 212 252 272 275 266 268 292 314 102 78 99 139 122 123 148 132 105 116 129 138 150 161 167
319 317 315 314 311 312 311 310 308 306 306 311 321 318 312 276 245 205 200 233 231 213 240 247 256 259 269 115 60 114 86 112 106 86 116 127 139 99 139 130 135 145 157 171 175
319 317 316 313 310 309 308 305 302 301 299 305 312 287 260 240 277 308 293 227 255 299 315 311 326 26 274 95 69 112 104 117 157 130 141 103 155 140 153 141 147 153 165 177 151
318 316 315 310 309 307 304 302 300 295 293 296 292 258 252 257 269 296 267 271 244 272 270 320 319 293 6 40 31 93 164 177 214 159 207 135 246 176 156 149 157 163 173 169 136
314 314 311 309 307 304 305 302 292 289 277 258 229 203 264 286 215 240 255 256 222 224 21 335 360 277 37 69 351 246 228 234 148 170 155 157 261 182 156 156 167 172 172 156 128
310 312 311 311 309 309 310 294 282 332 222 209 253 316 265 247 248 221 244 256 298 145 150 228 305 174 23 105 220 234 218 256 194 218 133 193 217 165 167 168 174 172 172 154 139
308 311 311 311 309 315 337 342 12 6 291 214 207 227 300 261 297 332 287 193 291 193 184 249 149 210 224 216 222 246 259 265 249 186 152 193 202 198 187 182 173 178 173 162 151
310 311 310 309 307 311 287 304 15 223 306 265 257 261 269 289 312 278 199 209 210 241 232 300 227 235 228 235 231 242 256 313 18 140 123 222 233 221 189 201 188 177 173 162 138
307 308 311 309 312 310 217 17 46 17 254 274 224 242 245 240 247 267 194 209 224 219 240 203 242 238 237 260 295 267 99 353 275 185 228 228 286 254 223 204 192 185 175 163 157
298 304 312 315 337 334 326 15 11 42 327 254 196 230 226 211 251 239 240 177 228 232 240 228 253 271 203 310 321 300 276 1 333 141 214 160 282 254 241 262 185 181 176 166 160
295 299 308 336 303 311 4 2 326 52 332 138 121 119 178 183 258 242 223 206 214 248 220 258 299 245 186 230 343 307 49 20 346 331 8 320 294 277 269 184 179 180 173 164 156
287 295 318 266 185 255 335 330 20 53 253 122 134 178 238 184 252 278 162 58 354 283 275 246 217 350 115 96 89 106 29 353 321 195 309 262 177 279 275 183 174 171 134 141 137
281 292 309 318 237 331 337 359 44 173 267 77 153 167 200 193 240 235 156 168 202 155 281 283 249 230 166 119 178 73 63 348 327 345 235 276 324 263 25 24 132 139 114 128 132
281 303 257 240 306 322 353 34 207 233 258 351 67 299 245 203 218 236 178 209 236 225 249 231 306 212 185 174 187 205 154 163 238 293 281 359 272 22 32 50 66 92 111 121 124
298 233 261 248 227 360 35 135 221 15 7 22 336 251 247 190 138 187 197 302 50 46 18 300 269 35 71 67 142 308 172 219 229 295 353 246 4 34 79 79 96 108 109 116 122
274 219 238 141 146 60 61 255 246 74 23 8 294 39 320 170 104 139 90 8 356 10 51 335 34 27 29 44 351 166 246 13 350 330 271 322 316 187 172 160 125 104 108 111 110
258 166 242 138 90 57 184 253 311 75 59 10 334 349 24 28 30 29 14 63 13 335 8 22 78 296 78 162 219 358 294 236 157 160 221 276 276 204 189 162 137 126 119 119 120
271 129 236 99 81 204 221 254 318 133 63 311 345 6 9 43 22 74 79 39 352 356 29 359 13 328 252 269 301 326 289 113 124 277 235 183 270 331 152 127 121 120 117 115 113
239 127 302 89 156 246 267 271 270 319 122 282 327 54 6 29 44 85 90 58 35 47 48 331 358 9 344 356 12 15 359 20 352 46 284 104 275 128 89 103 112 115 111 109 110
290 120 82 206 282 283 254 247 231 360 339 302 335 75 23 321 95 26 107 96 79 77 140 51 351 122 198 268 294 342 339 338 84 105 272 258 293 112 107 107 105 106 109 110 113
237 216 165 196 252 243 281 270 212 139 216 342 25 356 251 285 301 182 219 132 141 87 115 93 11 22 338 323 319 309 312 327 355 322 12 33 57 23 114 117 118 117 116 120 130
275 21 342 285 156 201 244 296 179 240 147 268 287 272 279 337 333 56 50 21 63 350 16 355 322 9 342 333 359 11 37 46 30 21 353 103 72 71 96 107 120 136 145 148 148
270 292 99 273 152 158 220 260 204 271 251 105 98 239 312 61 68 85 91 7 337 354 328 338 30 17 297 7 12 15 29 34 56 15 300 50 119 93 79 98 115 117 123 131 136